Location: Gallinara
(44.0333°N, 8.2333°E)
Time: 17:28:15
(UTC+00:00)

Cosmos 1707 Rocket - Pass Details

Date: 25 September 2020
Orbit: 606 x 630 km, 82.5° (Epoch: 29 October)

Event Time Altitude Azimuth Distance (km) Brightness Sun altitude
Exits shadow 03:32:26 46° 233° (SW) 826 3.7 -19.5°
Maximum altitude 03:33:23 57° 281° (W) 720 3.5 -19.3°
Drops below altitude 10° 03:37:42 10° 1° (N) 1,979 6.4 -18.6°
Sets 03:39:58 0° 5° (N) 2,892 7.3 -18.2°
